Location: Hormuz
(27.0871°N, 56.4580°E)
Time: 05:23:24
(UTC+04:30)

X-37B - Pass Details

Date: 23 June 2021
Orbit: 383 x 392 km, 45.0° (Epoch: 01 July)

Event Time Altitude Azimuth Distance (km) Brightness Sun altitude
Rises 21:53:52 0° 275° (W) 2,248 5.2 -24.5°
Reaches altitude 10° 21:56:58 10° 309° (NW) 1,396 4.4 -25.0°
Maximum altitude 21:58:15 12° 333° (NNW) 1,286 4.1 -25.2°
Drops below altitude 10° 21:59:33 10° 358° (N) 1,397 4.0 -25.4°
Sets 22:02:40 0° 31° (NNE) 2,251 4.7 -25.8°
